Weather History for KOPM - May, 2014

Change the Weather History Date:

Thursday, May 1, 2014

  Actual Average Record
Temperature  
Mean Temperature 70 °F -  
Max Temperature 71 °F - - ()
Min Temperature 68 °F - - ()
Cooling Degree Days 4    
Growing Degree Days 20 (Base 50)    
Moisture  
Dew Point 51 °F    
Average Humidity 53    
Maximum Humidity 60    
Minimum Humidity 49    
Precipitation  
Precipitation 0.00 in - - ()
Sea Level Pressure  
Sea Level Pressure 30.07 in    
Wind  
Wind Speed 15 mph (NE)    
Max Wind Speed 23 mph    
Max Gust Speed 28 mph    
Visibility 10 miles    
Events      
Averages and records for this station are not official NWS values.
T = Trace of Precipitation, MM = Missing Value Source: NWS Daily Summary

Daily Weather History Graph

Daily Weather History Graph

Search for Another Location

Airport or City:

Trip Planner

Search our weather history database for the weather conditions in past years. The results will help you decide how hot, cold, wet, or windy it might be!

Date:

Astronomy

May. 01, 2014 Rise Set
Actual Time 6:49 AM CDT 8:00 PM CDT
Civil Twilight 6:25 AM CDT 8:25 PM CDT
Nautical Twilight 5:56 AM CDT 8:54 PM CDT
Astronomical Twilight 5:26 AM CDT 9:24 PM CDT
Moon 8:43 AM CDT (5/1) 10:29 PM CDT (5/1)
Length of Visible Light 14h 00m
Length of Day
13h 11m
Waxing Crescent, 7% of the Moon is Illuminated
May 1
Waxing Crescent
May 6
First Quarter
May 14
Full
May 21
Last Quarter
May 28
New

Hourly Weather History & Observations

Time (CDT) Temp. Dew Point Humidity Pressure Visibility Wind Dir Wind Speed Gust Speed Precip Events Conditions
12:15 AM 71.6 °F 51.8 °F 50% 30.08 in 10.0 mi NNE 15.0 mph 20.7 mph N/A   Overcast
12:35 AM 71.6 °F 51.8 °F 50% 30.09 in 10.0 mi NNE 12.7 mph 19.6 mph N/A   Overcast
12:55 AM 71.6 °F 51.8 °F 50% 30.09 in 10.0 mi NNE 11.5 mph 18.4 mph N/A   Overcast
1:15 AM 71.6 °F 51.8 °F 50% 30.09 in 10.0 mi NNE 9.2 mph 20.7 mph N/A   Overcast
1:35 AM 71.6 °F 51.8 °F 50% 30.09 in 10.0 mi NNE 9.2 mph 16.1 mph N/A   Overcast
1:55 AM 71.6 °F 53.6 °F 53% 30.09 in 10.0 mi NNE 12.7 mph 19.6 mph N/A   Overcast
2:15 AM 71.6 °F 55.4 °F 57% 30.08 in 10.0 mi NNE 16.1 mph - N/A   Overcast
2:35 AM 71.6 °F 53.6 °F 53% 30.08 in 10.0 mi NNE 17.3 mph - N/A   Overcast
2:55 AM 71.6 °F 53.6 °F 53% 30.08 in 10.0 mi NNE 16.1 mph 23.0 mph N/A   Scattered Clouds
3:15 AM 71.6 °F 51.8 °F 50% 30.07 in 10.0 mi NNE 16.1 mph 23.0 mph N/A   Partly Cloudy
3:35 AM 69.8 °F 51.8 °F 53% 30.07 in 10.0 mi NNE 17.3 mph 23.0 mph N/A   Clear
3:55 AM 69.8 °F 53.6 °F 56% 30.07 in 10.0 mi NNE 17.3 mph - N/A   Clear
4:15 AM 69.8 °F 51.8 °F 53% 30.06 in 10.0 mi NNE 17.3 mph 24.2 mph N/A   Mostly Cloudy
4:35 AM 69.8 °F 51.8 °F 53% 30.05 in 10.0 mi NE 23.0 mph - N/A   Overcast
4:55 AM 69.8 °F 51.8 °F 53% 30.07 in 10.0 mi NNE 19.6 mph - N/A   Overcast
5:15 AM 69.8 °F 53.6 °F 56% 30.07 in 10.0 mi NNE 16.1 mph 23.0 mph N/A   Overcast
5:35 AM 69.8 °F 53.6 °F 56% 30.05 in 10.0 mi NE 21.9 mph - N/A   Overcast
5:55 AM 69.8 °F 53.6 °F 56% 30.06 in 10.0 mi NNE 18.4 mph 24.2 mph N/A   Mostly Cloudy
6:15 AM 69.8 °F 53.6 °F 56% 30.07 in 10.0 mi NNE 18.4 mph 25.3 mph N/A   Scattered Clouds
6:35 AM 69.8 °F 55.4 °F 60% 30.07 in 10.0 mi NNE 18.4 mph 27.6 mph N/A   Overcast
6:55 AM 69.8 °F 53.6 °F 56% 30.05 in 10.0 mi NNE 21.9 mph 27.6 mph N/A   Overcast
7:15 AM 69.8 °F 55.4 °F 60% 30.07 in 10.0 mi NE 21.9 mph - N/A   Overcast
7:35 AM 69.8 °F 55.4 °F 60% 30.08 in 10.0 mi NNE 13.8 mph 25.3 mph N/A   Overcast
7:55 AM 69.8 °F 55.4 °F 60% 30.08 in 10.0 mi NNE 15.0 mph 26.5 mph N/A   Overcast
8:15 AM 69.8 °F 53.6 °F 56% 30.09 in 10.0 mi NNE 17.3 mph 25.3 mph N/A   Overcast
8:35 AM 69.8 °F 53.6 °F 56% 30.10 in 10.0 mi NNE 12.7 mph 24.2 mph N/A   Mostly Cloudy
9:15 AM 69.8 °F 51.8 °F 53% 30.11 in 10.0 mi NNE 12.7 mph 23.0 mph N/A   Mostly Cloudy
10:15 AM 69.8 °F 51.8 °F 53% 30.13 in 10.0 mi NNE 19.6 mph 27.6 mph N/A   Scattered Clouds
10:35 AM 69.8 °F 53.6 °F 56% 30.13 in 10.0 mi NNE 13.8 mph 24.2 mph N/A   Scattered Clouds
10:55 AM 69.8 °F 50.0 °F 49% 30.14 in 10.0 mi NNE 16.1 mph 25.3 mph N/A   Mostly Cloudy
11:15 AM 69.8 °F 50.0 °F 49% 30.14 in 10.0 mi NNE 18.4 mph - N/A   Scattered Clouds
11:35 AM 69.8 °F 50.0 °F 49% 30.14 in 10.0 mi NNE 19.6 mph - N/A   Scattered Clouds
11:55 AM 69.8 °F 50.0 °F 49% 30.14 in 10.0 mi NE 20.7 mph - N/A   Partly Cloudy
12:15 PM 68.0 °F 50.0 °F 52% 30.13 in 10.0 mi NNE 16.1 mph 24.2 mph N/A   Clear
12:35 PM 68.0 °F 50.0 °F 52% 30.13 in 10.0 mi NNE 11.5 mph 19.6 mph N/A   Clear
1:15 PM 68.0 °F 50.0 °F 52% 30.12 in 10.0 mi NNE 11.5 mph 20.7 mph N/A   Partly Cloudy
1:35 PM 68.0 °F 48.2 °F 49% 30.12 in 10.0 mi NNE 6.9 mph - N/A   Clear
1:55 PM 68.0 °F 48.2 °F 49% 30.11 in 10.0 mi NNE 6.9 mph 13.8 mph N/A   Clear
2:15 PM 68.0 °F 50.0 °F 52% 30.10 in 10.0 mi NNE 11.5 mph 18.4 mph N/A   Clear
2:35 PM 68.0 °F 50.0 °F 52% 30.09 in 10.0 mi NNE 16.1 mph - N/A   Clear
3:15 PM 68.0 °F 48.2 °F 49% 30.08 in 10.0 mi NNE 11.5 mph 19.6 mph N/A   Clear
3:35 PM 68.0 °F 48.2 °F 49% 30.07 in 10.0 mi NNE 9.2 mph - N/A   Clear
3:55 PM 68.0 °F 50.0 °F 52% 30.07 in 10.0 mi NNE 8.1 mph 18.4 mph N/A   Clear
4:15 PM 68.0 °F 48.2 °F 49% 30.05 in 10.0 mi NNE 9.2 mph 16.1 mph N/A   Clear
4:35 PM 68.0 °F 48.2 °F 49% 30.05 in 10.0 mi NE 13.8 mph 20.7 mph N/A   Clear
4:55 PM 68.0 °F 50.0 °F 52% 30.04 in 10.0 mi NNE 15.0 mph - N/A   Clear
5:15 PM 68.0 °F 50.0 °F 52% 30.03 in 10.0 mi NE 17.3 mph - N/A   Clear
5:35 PM 68.0 °F 50.0 °F 52% 30.04 in 10.0 mi NE 15.0 mph - N/A   Clear
5:55 PM 68.0 °F 50.0 °F 52% 30.04 in 10.0 mi NNE 12.7 mph 19.6 mph N/A   Clear
6:15 PM 68.0 °F 51.8 °F 56% 30.04 in 10.0 mi NE 16.1 mph - N/A   Clear
6:35 PM 68.0 °F 51.8 °F 56% 30.03 in 10.0 mi NE 17.3 mph - N/A   Clear
6:55 PM 68.0 °F 50.0 °F 52% 30.03 in 10.0 mi NE 15.0 mph - N/A   Clear
7:15 PM 68.0 °F 50.0 °F 52% 30.01 in 10.0 mi NE 19.6 mph - N/A   Partly Cloudy
7:35 PM 68.0 °F 51.8 °F 56% 30.02 in 10.0 mi NE 19.6 mph - N/A   Clear
7:55 PM 68.0 °F 50.0 °F 52% 30.02 in 10.0 mi NE 18.4 mph - N/A   Clear
8:15 PM 68.0 °F 51.8 °F 56% 30.03 in 10.0 mi NE 16.1 mph - N/A   Clear
8:35 PM 68.0 °F 50.0 °F 52% 30.03 in 10.0 mi NE 17.3 mph - N/A   Clear
8:55 PM 68.0 °F 50.0 °F 52% 30.03 in 10.0 mi NE 17.3 mph - N/A   Clear
9:15 PM 68.0 °F 50.0 °F 52% 30.04 in 10.0 mi NE 15.0 mph - N/A   Clear
9:35 PM 68.0 °F 50.0 °F 52% 30.04 in 10.0 mi NE 17.3 mph - N/A   Clear
9:55 PM 68.0 °F 50.0 °F 52% 30.04 in 10.0 mi NE 16.1 mph - N/A   Clear
10:15 PM 68.0 °F 50.0 °F 52% 30.05 in 10.0 mi NE 15.0 mph - N/A   Clear
10:35 PM 68.0 °F 50.0 °F 52% 30.05 in 10.0 mi NE 16.1 mph - N/A   Clear
10:55 PM 68.0 °F 50.0 °F 52% 30.05 in 10.0 mi NE 15.0 mph - N/A   Clear
11:15 PM 68.0 °F 51.8 °F 56% 30.05 in 10.0 mi NE 15.0 mph - N/A   Clear
11:35 PM 68.0 °F 51.8 °F 56% 30.06 in 10.0 mi NE 11.5 mph - N/A   Scattered Clouds
11:55 PM 68.0 °F 50.0 °F 52% 30.06 in 10.0 mi NE 13.8 mph - N/A   Scattered Clouds